Вернуться в каталог

STARLINK-35046

АктивенСвязьVLEO
NORAD 65701·PAYLOAD·🇺🇸 United States

Запущен Sep 21, 2025 с Cape Canaveral Space Force Station

Loading…

Ближайшие Пролёты (ближайшие 24 часа)

TLE

СвежийSource: CelesTrak SupGP

Эпоха: Sep 15, 2026, 03:58 UTC

1 65701C 25212AB  26258.16576389  .00005987  00000+0  17692-3 0  2583
2 65701  53.1575 182.6626 0001330  83.5563 300.5032 15.34384011    19

Отслеживайте STARLINK-35046 в реальном времени с AllMySat

Download on the App Store